Sanford, ME

7:56 AM EDT on April 24, 2018 (GMT -0400)
Sanford Regional

Weather History for KSFM - January, 2014

Change the Weather History Date:

Sunday, January 26, 2014

  Actual Average Record
Temperature  
Mean Temperature 13 °F -  
Max Temperature 23 °F 27 °F 50 °F (2002)
Min Temperature 3 °F 8 °F -16 °F (2009)
Degree Days  
Heating Degree Days 52    
Moisture  
Dew Point -3 °F    
Average Humidity 47    
Maximum Humidity 93    
Minimum Humidity 32    
Precipitation  
Precipitation 0.00 in - - ()
Sea Level Pressure  
Sea Level Pressure 29.62 in    
Wind  
Wind Speed 12 mph (WSW)    
Max Wind Speed 26 mph    
Max Gust Speed 36 mph    
Visibility 8 miles    
Events      
Averages and records for this station are not official NWS values.
T = Trace of Precipitation, MM = Missing Value Source: NWS Daily Summary

Daily Weather History Graph

Daily Weather History Graph

Search for Another Location

Airport or City:

Astronomy

Jan. 26, 2014 Rise Set
Actual Time 7:04 AM EST 4:46 PM EST
Civil Twilight 6:33 AM EST 5:17 PM EST
Nautical Twilight 5:59 AM EST 5:51 PM EST
Astronomical Twilight 5:25 AM EST 6:25 PM EST
Moon 2:39 AM EST (1/26) 12:32 PM EST (1/26)
Length of Visible Light 10h 43m
Length of Day
9h 41m
Waning Crescent, 24% of the Moon is Illuminated
Jan 26
Waning Crescent
Jan 30
New
Feb 6
First Quarter
Feb 14
Full
Feb 22
Last Quarter

Hourly Weather History & Observations

Time (EST) Temp. Windchill Dew Point Humidity Pressure Visibility Wind Dir Wind Speed Gust Speed Precip Events Conditions
12:15 AM 23.0 °F 13.1 °F 8.6 °F 54% 29.26 in 10.0 mi West 9.2 mph - N/A   Mostly Cloudy
12:35 AM 23.0 °F 13.1 °F 19.4 °F 86% 29.25 in 10.0 mi West 9.2 mph - N/A   Mostly Cloudy
12:55 AM 21.2 °F 11.7 °F 10.4 °F 63% 29.25 in 10.0 mi WSW 8.1 mph - N/A   Partly Cloudy
1:15 AM 21.2 °F 11.7 °F 10.4 °F 63% 29.26 in 10.0 mi WSW 8.1 mph 16.1 mph N/A   Partly Cloudy
1:35 AM 21.2 °F 9.5 °F 17.6 °F 86% 29.26 in 10.0 mi WSW 11.5 mph - N/A   Scattered Clouds
1:55 AM 21.2 °F 11.7 °F 6.8 °F 54% 29.27 in 10.0 mi WSW 8.1 mph - N/A   Overcast
2:15 AM 21.2 °F 10.9 °F 19.4 °F 93% 29.28 in 10.0 mi WSW 9.2 mph - N/A   Overcast
2:35 AM 21.2 °F 9.5 °F 8.6 °F 58% 29.29 in 10.0 mi WSW 11.5 mph 17.3 mph N/A   Scattered Clouds
2:55 AM 21.2 °F 10.9 °F 12.2 °F 68% 29.30 in 10.0 mi WSW 9.2 mph - N/A   Partly Cloudy
3:15 AM 21.2 °F 7.3 °F 15.8 °F 80% 29.31 in 10.0 mi WSW 16.1 mph - N/A   Clear
3:35 AM 21.2 °F 7.8 °F 3.2 °F 46% 29.32 in 10.0 mi WSW 15.0 mph - N/A   Clear
3:55 AM 21.2 °F 9.5 °F 19.4 °F 93% 29.34 in 10.0 mi WSW 11.5 mph 20.7 mph N/A   Clear
4:15 AM 21.2 °F 6.4 °F 1.4 °F 42% 29.35 in 10.0 mi West 18.4 mph 23.0 mph N/A   Clear
4:35 AM 19.4 °F 2.1 °F 6.8 °F 58% 29.37 in 2.0 mi West 24.2 mph 31.1 mph N/A   Clear
4:55 AM 17.6 °F -1.0 °F 3.2 °F 53% 29.39 in 2.0 mi West 26.5 mph 35.7 mph N/A   Clear
5:15 AM 15.8 °F -1.9 °F -0.4 °F 49% 29.41 in 3.0 mi West 21.9 mph 31.1 mph N/A   Clear
5:35 AM 15.8 °F -1.9 °F -0.4 °F 49% 29.42 in 2.0 mi West 21.9 mph 35.7 mph N/A   Clear
5:55 AM 15.8 °F -2.3 °F -2.2 °F 45% 29.45 in 5.0 mi West 23.0 mph 28.8 mph N/A   Clear
6:15 AM 14.0 °F -2.5 °F -4.0 °F 45% 29.46 in 7.0 mi West 17.3 mph 29.9 mph N/A   Clear
6:35 AM 12.2 °F -4.8 °F -2.2 °F 53% 29.47 in 10.0 mi West 17.3 mph 23.0 mph N/A   Clear
6:55 AM 12.2 °F -6.3 °F -7.6 °F 41% 29.49 in 3.0 mi West 20.7 mph 32.2 mph N/A   Clear
7:15 AM 12.2 °F -6.3 °F -5.8 °F 45% 29.51 in 7.0 mi West 20.7 mph 29.9 mph N/A   Clear
7:35 AM 10.4 °F -4.1 °F -9.4 °F 41% 29.53 in 10.0 mi West 11.5 mph 17.3 mph N/A   Clear
7:55 AM 10.4 °F -6.6 °F -7.6 °F 44% 29.54 in 10.0 mi West 16.1 mph 20.7 mph N/A   Clear
8:15 AM 10.4 °F -8.2 °F -9.4 °F 41% 29.55 in 6.0 mi West 19.6 mph 24.2 mph N/A   Clear
8:35 AM 10.4 °F -7.7 °F -7.6 °F 44% 29.57 in 9.0 mi West 18.4 mph 25.3 mph N/A   Clear
8:55 AM 10.4 °F -9.5 °F -9.4 °F 41% 29.60 in 5.0 mi West 23.0 mph 31.1 mph N/A   Clear
9:15 AM 12.2 °F -5.8 °F -9.4 °F 38% 29.61 in 4.0 mi West 19.6 mph 26.5 mph N/A   Clear
9:35 AM 12.2 °F -7.1 °F -9.4 °F 38% 29.62 in 1.2 mi WNW 23.0 mph 34.5 mph N/A   Clear
9:55 AM 12.2 °F -2.5 °F -11.2 °F 34% 29.64 in 3.0 mi WNW 12.7 mph 27.6 mph N/A   Clear
10:15 AM 12.2 °F -3.1 °F -9.4 °F 38% 29.65 in 6.0 mi West 13.8 mph 28.8 mph N/A   Clear
10:35 AM 12.2 °F -4.8 °F -9.4 °F 38% 29.66 in 3.0 mi WNW 17.3 mph 32.2 mph N/A   Clear
10:55 AM 12.2 °F -3.7 °F -9.4 °F 38% 29.68 in 10.0 mi West 15.0 mph 24.2 mph N/A   Clear
11:15 AM 14.0 °F -3.0 °F -9.4 °F 35% 29.68 in 10.0 mi West 18.4 mph 27.6 mph N/A   Clear
11:35 AM 14.0 °F -2.0 °F -9.4 °F 35% 29.69 in 7.0 mi West 16.1 mph 28.8 mph N/A   Clear
11:55 AM 14.0 °F -2.0 °F -9.4 °F 35% 29.68 in 7.0 mi West 16.1 mph 29.9 mph N/A   Clear
12:15 PM 14.0 °F -2.5 °F -11.2 °F 32% 29.68 in 9.0 mi West 17.3 mph 31.1 mph N/A   Clear
12:35 PM 15.8 °F -2.7 °F -7.6 °F 35% 29.69 in 5.0 mi West 24.2 mph 33.4 mph N/A   Clear
12:55 PM 15.8 °F -1.9 °F -9.4 °F 32% 29.70 in 5.0 mi West 21.9 mph 29.9 mph N/A   Clear
1:15 PM 15.8 °F 0.3 °F -7.6 °F 35% 29.70 in 9.0 mi West 16.1 mph 27.6 mph N/A   Clear
1:35 PM 17.6 °F 0.9 °F -7.6 °F 32% 29.70 in 10.0 mi WSW 20.7 mph 28.8 mph N/A   Clear
1:55 PM 15.8 °F 0.3 °F -5.8 °F 38% 29.70 in 7.0 mi West 16.1 mph 28.8 mph N/A   Clear
2:15 PM 15.8 °F 0.3 °F -9.4 °F 32% 29.71 in 10.0 mi West 16.1 mph 25.3 mph N/A   Clear
2:35 PM 15.8 °F 0.3 °F -9.4 °F 32% 29.71 in 10.0 mi WNW 16.1 mph 24.2 mph N/A   Clear
2:55 PM 15.8 °F 0.9 °F -7.6 °F 35% 29.70 in 10.0 mi West 15.0 mph 21.9 mph N/A   Clear
3:15 PM 15.8 °F 3.4 °F -9.4 °F 32% 29.72 in 10.0 mi West 10.4 mph 16.1 mph N/A   Clear
3:35 PM 15.8 °F 2.7 °F -7.6 °F 35% 29.74 in 10.0 mi WSW 11.5 mph - N/A   Clear
3:55 PM 15.8 °F 6.1 °F -7.6 °F 35% 29.76 in 10.0 mi WSW 6.9 mph 17.3 mph N/A   Clear
4:15 PM 15.8 °F 2.7 °F -7.6 °F 35% 29.76 in 10.0 mi SW 11.5 mph 18.4 mph N/A   Clear
4:35 PM 15.8 °F 5.1 °F -5.8 °F 38% 29.77 in 10.0 mi SW 8.1 mph - N/A   Scattered Clouds
4:55 PM 15.8 °F 4.2 °F -5.8 °F 38% 29.78 in 10.0 mi SW 9.2 mph - N/A   Mostly Cloudy
5:15 PM 15.8 °F 5.1 °F -5.8 °F 38% 29.78 in 10.0 mi SW 8.1 mph - N/A   Scattered Clouds
5:35 PM 15.8 °F 10.2 °F -5.8 °F 38% 29.80 in 10.0 mi SW 3.5 mph - N/A   Mostly Cloudy
5:55 PM 15.8 °F 6.1 °F -5.8 °F 38% 29.82 in 10.0 mi SW 6.9 mph - N/A   Mostly Cloudy
6:15 PM 15.8 °F 7.2 °F -4.0 °F 41% 29.82 in 10.0 mi WSW 5.8 mph - N/A   Overcast
6:35 PM 15.8 °F 8.6 °F -7.6 °F 35% 29.82 in 10.0 mi SW 4.6 mph - N/A   Scattered Clouds
6:55 PM 14.0 °F 8.2 °F -5.8 °F 41% 29.81 in 10.0 mi South 3.5 mph - N/A   Clear
7:15 PM 12.2 °F 6.1 °F -7.6 °F 41% 29.83 in 10.0 mi South 3.5 mph - N/A   Clear
7:35 PM 10.4 °F 4.0 °F -5.8 °F 48% 29.84 in 10.0 mi South 3.5 mph - N/A   Clear
7:55 PM 6.8 °F -0.1 °F -7.6 °F 52% 29.84 in 10.0 mi South 3.5 mph - N/A   Clear
8:15 PM 3.2 °F - -4.0 °F 72% 29.83 in 10.0 mi Calm Calm - N/A   Mostly Cloudy
8:35 PM 6.8 °F -2.0 °F -9.4 °F 48% 29.82 in 10.0 mi SSE 4.6 mph - N/A   Overcast
8:55 PM 10.4 °F 4.0 °F -5.8 °F 48% 29.83 in 10.0 mi SSW 3.5 mph - N/A   Overcast
9:15 PM 12.2 °F 6.1 °F -5.8 °F 45% 29.84 in 10.0 mi South 3.5 mph - N/A   Overcast
9:35 PM 14.0 °F 8.2 °F -0.4 °F 53% 29.84 in 10.0 mi South 3.5 mph - N/A   Overcast
9:55 PM 15.8 °F 10.2 °F -2.2 °F 45% 29.85 in 10.0 mi South 3.5 mph - N/A   Overcast
10:15 PM 15.8 °F - -0.4 °F 49% 29.85 in 10.0 mi Calm Calm - N/A   Overcast
10:35 PM 15.8 °F - 3.2 °F 58% 29.85 in 10.0 mi Calm Calm - N/A   Overcast
10:55 PM 15.8 °F - 1.4 °F 53% 29.84 in 10.0 mi Calm Calm - N/A   Overcast
11:15 PM 15.8 °F 10.2 °F 3.2 °F 58% 29.84 in 10.0 mi South 3.5 mph - N/A   Mostly Cloudy
11:35 PM 17.6 °F 9.3 °F -0.4 °F 45% 29.84 in 10.0 mi South 5.8 mph - N/A   Overcast
11:55 PM 17.6 °F - 3.2 °F 53% 29.83 in 10.0 mi Calm Calm - N/A   Overcast